Location: Newark
(49.2191°N, 12.6671°E)
Time: 20:34:23
(UTC+00:00)

Transit 2A - Pass Details

Date: 24 January 2020
Orbit: 600 x 959 km, 66.7° (Epoch: 22 February)

Event Time Altitude Azimuth Distance (km) Brightness Sun altitude
Exits shadow 05:29:19 16° 259° (W) 1,798 7.4 -13.2°
Maximum altitude 05:29:54 17° 251° (WSW) 1,792 7.4 -13.1°
Drops below altitude 10° 05:33:06 10° 212° (SSW) 2,276 8.3 -12.6°
Sets 05:36:23 0° 193° (SSW) 3,276 9.3 -12.1°
